Cloud_Cover
100 100 100 100 100 100 100 100 100 100 100 100 100 100 98 56 38 71 91 82 67 100 100 100 100 59 69 93 93 100 100 100 97 100 98 100 100 100 100 100 100 100 100
100 98 98 100 100 100 100 100 100 100 91 100 100 100 100 100 93 69 35 84 52 99 51 10 96 100 37 37 100 64 100 100 100 100 88 100 100 100 100 100 100 100 100
100 100 97 85 100 100 99 18 52 100 100 100 100 100 100 18 16 9 12 6 67 100 23 69 50 5 5 13 42 100 94 46 87 88 99 100 100 100 100 100 100 100 100
100 97 42 55 76 100 95 100 96 98 100 100 100 100 100 100 100 77 39 7 5 5 68 56 56 98 30 5 22 78 100 97 12 81 73 100 100 100 100 100 100 100 100
100 100 100 97 100 100 100 100 100 100 100 100 100 100 100 99 100 100 77 9 8 15 31 81 100 100 100 63 5 7 17 88 77 86 73 88 100 89 100 100 100 100 100
36 84 100 100 100 100 100 100 100 100 100 100 100 100 100 100 100 100 100 100 100 100 26 6 7 85 100 100 100 91 53 6 90 46 8 34 100 100 100 100 100 100 100
22 45 80 100 100 100 90 100 100 100 100 100 100 100 100 100 100 100 100 100 100 79 30 55 5 25 24 28 8 13 80 96 32 9 33 61 55 100 100 100 100 100 100
100 43 92 66 100 100 98 69 41 62 100 100 100 100 100 100 100 100 100 100 83 69 81 100 56 18 5 5 5 5 1 56 100 94 21 55 89 77 100 100 100 100 100
100 100 100 50 99 43 100 100 100 96 100 100 100 100 100 100 100 100 100 97 19 5 5 5 5 5 5 5 5 4 2 0 10 100 92 86 96 30 76 100 100 100 100
100 100 99 52 32 60 45 11 98 100 100 100 100 100 100 100 100 100 100 100 52 6 5 5 5 5 5 5 4 0 0 4 0 5 82 100 100 66 92 79 100 100 100
100 100 91 31 5 5 5 5 50 92 99 81 85 99 100 100 100 100 100 100 100 100 73 23 7 5 5 5 6 11 6 10 0 0 0 45 100 100 100 100 99 100 99
97 99 97 99 46 14 22 10 12 43 31 5 5 5 5 24 97 100 100 100 93 100 92 5 5 4 20 14 7 5 39 36 4 5 1 0 2 48 100 100 100 100 96
10 5 5 9 5 4 5 5 5 5 5 5 5 4 5 5 2 5 20 52 70 58 23 18 5 3 0 5 5 5 9 14 8 5 5 3 1 1 8 98 100 100 100
12 19 13 7 5 2 2 0 5 5 1 2 4 0 2 4 5 0 0 0 4 5 5 5 5 3 0 0 0 5 5 5 23 6 5 5 5 4 5 5 21 100 100
2 2 4 4 5 5 5 5 5 5 4 5 2 1 0 0 0 0 0 0 0 0 0 0 4 2 0 0 0 0 0 26 15 40 35 6 5 5 5 4 5 8 80
0 0 0 0 0 0 0 0 0 0 0 0 0 0 0 0 0 0 0 0 0 0 0 0 0 0 1 3 0 0 1 8 32 100 100 57 59 5 5 4 5 5 5
0 0 0 0 0 0 0 0 0 0 0 0 0 0 0 0 0 0 0 0 0 0 0 0 0 0 0 0 0 0 0 0 0 57 100 100 88 16 8 5 5 5 5
0 0 0 0 0 0 0 0 0 0 0 0 0 0 0 0 0 0 0 0 0 0 0 0 0 0 0 0 0 0 0 0 0 0 0 39 100 90 62 99 50 6 8
0 0 0 0 0 0 0 0 0 0 0 0 0 0 0 0 0 0 0 1 5 4 2 1 0 0 0 0 4 0 0 0 0 0 0 0 88 100 100 47 78 100 86
0 0 0 0 0 0 0 0 0 0 1 1 1 0 0 0 0 0 0 0 0 5 5 5 0 0 0 0 0 0 0 0 0 0 0 0 0 3 47 99 40 47 70
1 6 5 0 0 5 5 5 5 0 1 0 0 0 0 0 0 0 0 0 0 0 5 5 5 4 0 4 0 2 0 0 0 0 0 0 0 0 0 0 27 99 54
9 6 9 5 5 5 5 1 0 4 5 5 5 5 5 5 5 5 5 5 5 5 5 5 5 5 5 1 2 5 22 1 1 4 0 0 0 0 0 0 0 0 38
39 98 78 5 4 6 7 5 6 5 5 3 5 5 23 24 49 94 98 28 21 6 82 94 83 64 84 89 25 35 43 46 95 12 14 13 0 0 0 0 0 0 0
6 73 49 5 45 99 95 8 10 5 1 4 5 5 5 80 100 95 98 100 100 100 88 90 100 100 98 98 100 85 26 100 100 100 91 91 71 0 0 0 0 0 0
5 43 81 100 98 34 5 5 5 5 0 2 50 99 100 100 100 100 98 97 100 99 100 86 100 100 100 99 100 100 100 53 95 28 94 97 32 43 0 0 1 0 0
47 55 47 23 18 5 2 4 1 4 2 0 0 6 50 100 100 100 100 100 78 71 49 43 81 100 100 100 100 100 100 100 63 97 100 100 100 91 95 6 13 47 0